Location: Burzi?i
(45.0869°N, 16.0577°E)
Time: 04:30:34
(UTC+00:00)

ATLAS 2AS CENTAUR R/B - Pass Details

Date: 29 October 2020
Orbit: 939 x 1273 km, 63.7° (Epoch: 23 November)

Event Time Altitude Azimuth Distance (km) Brightness Sun altitude
Rises 16:23:49 0° 316° (NW) 4,198 6.3 -7.0°
Reaches altitude 10° 16:27:20 10° 330° (NNW) 3,192 5.4 -7.6°
Maximum altitude 16:33:27 25° 23° (NNE) 2,186 4.1 -8.7°
Enters shadow 16:38:50 11° 74° (ENE) 2,908 4.3 -9.6°
